Location: Devargunta
(16.7631°N, 80.9077°E)
Time: 09:46:46
(UTC+00:00)

Meteor 2-1 Rocket - Pass Details

Date: 19 January 2021
Orbit: 827 x 910 km, 81.3° (Epoch: 28 February)

Event Time Altitude Azimuth Distance (km) Brightness Sun altitude
Rises 13:48:10 0° 354° (N) 3,372 7.2 -19.6°
Reaches altitude 10° 13:50:34 10° 354° (N) 2,432 6.5 -20.2°
Maximum altitude 13:56:04 89° 263° (W) 830 4.1 -21.4°
Drops below altitude 10° 14:01:33 10° 175° (S) 2,424 6.7 -22.7°
Sets 14:03:57 0° 175° (S) 3,360 7.5 -23.3°
